This is the latest recevied weather packets stored in our database for station/object N1UNH. If no packets are shown the sender has not sent any weather packets the latest 10 day(s).
| Time | Temp. | Humidity | Pressure | Rain* | Wind** | Luminosity | Snow |
|---|---|---|---|---|---|---|---|
| 1777543148 | 6.11° C | 94% | 1014 hPa | 1.27 mm | - | 2 W/m² | - |
| 1777542845 | 6.11° C | 94% | 1013.8 hPa | 3.05 mm | - | 2 W/m² | - |
| 1777542542 | 6.11° C | 94% | 1013.9 hPa | 1.78 mm | - | 1 W/m² | - |
| 1777542237 | 6.11° C | 94% | 1013.9 hPa | 1.78 mm | - | 1 W/m² | - |
| 1777541935 | 6.11° C | 94% | 1013.8 hPa | 1.27 mm | - | 0 W/m² | - |
| 1777541632 | 6.67° C | 94% | 1013.8 hPa | 1.78 mm | - | 0 W/m² | - |
| 1777541329 | 6.67° C | 94% | 1013.8 hPa | 3.05 mm | - | 0 W/m² | - |
| 1777541024 | 6.67° C | 94% | 1013.9 hPa | 3.05 mm | - | 0 W/m² | - |
| 1777540722 | 6.67° C | 94% | 1014.1 hPa | 1.78 mm | - | 0 W/m² | - |
| 1777540419 | 6.67° C | 94% | 1014.3 hPa | 3.05 mm | - | 0 W/m² | - |
| 1777540116 | 6.67° C | 94% | 1014.2 hPa | 1.27 mm | - | 0 W/m² | - |
| 1777539815 | 6.67° C | 94% | 1014.2 hPa | 1.78 mm | - | 0 W/m² | - |
| 1777539512 | 6.67° C | 94% | 1014.3 hPa | 1.78 mm | - | 0 W/m² | - |
| 1777539208 | 6.67° C | 94% | 1014.2 hPa | 1.78 mm | - | 0 W/m² | - |
| 1777538906 | 6.67° C | 94% | 1014.1 hPa | 1.78 mm | - | 0 W/m² | - |
| 1777538601 | 6.67° C | 94% | 1014.3 hPa | 0 mm | - | 0 W/m² | - |
| 1777538296 | 6.67° C | 94% | 1014.3 hPa | 0 mm | - | 0 W/m² | - |
| 1777537992 | 6.67° C | 94% | 1014.3 hPa | 0 mm | - | 0 W/m² | - |
| 1777537689 | 6.67° C | 94% | 1014.4 hPa | 0 mm | - | 0 W/m² | - |
| 1777537385 | 6.67° C | 94% | 1014.5 hPa | 0 mm | - | 0 W/m² | - |
| 1777537081 | 6.67° C | 94% | 1014.3 hPa | 0 mm | - | 0 W/m² | - |
| 1777536777 | 6.67° C | 94% | 1014.4 hPa | 0 mm | - | 0 W/m² | - |
| 1777536475 | 6.67° C | 94% | 1014.5 hPa | 0 mm | - | 0 W/m² | - |
| 1777536171 | 6.67° C | 94% | 1014.6 hPa | 0 mm | - | 0 W/m² | - |
| 1777535867 | 6.67° C | 94% | 1014.8 hPa | 0 mm | - | 0 W/m² | - |
* Rain latest hour (hover to see other rain measurements)
** Current wind speed in m/s (hover to see current wind gust speed)